User: anonymous   Login
Location: Geremba
(10.4250°N, 67.2394°W)
Time: 08:52:42
(UTC+00:00)
Language:

Hubble Space Telescope - Orbit

View from above orbital plane
View from above orbital plane
View from above satellite
View from above satellite

Ground track
Ground track

The orbit data is extracted from the following two-line orbital elements,

1 20580U 90037B   24200.87601516  .00009289  00000-0  43302-3 0  9999
2 20580  28.4679 132.7501 0002485  22.7519 337.3183 15.18150890681851
Epoch (UTC): 18 July 2024 21:01:27
Eccentricity: 0.0002485
inclination: 28.4679°
perigee height: 510 km
apogee height: 513 km
right ascension of ascending node: 132.7501°
argument of perigee: 22.7519°
revolutions per day: 15.18150890
mean anomaly at epoch: 337.3183°
orbit number at epoch: 68185

The dashed part of the orbit path shows where the satellite is in the earth's shadow,  

DLR